Powrót do katalogu

STARLINK-6259

AktywnyŁącznośćVLEO
NORAD 57089·PAYLOAD·🇺🇸 United States

Wystrzelony Jun 22, 2023 z Vandenberg Space Force Base

Loading…

Następne Przeloty (najbliższe 24 godziny)

TLE

ŚwieżeSource: CelesTrak SupGP

Epoka: Sep 14, 2026, 13:45 UTC

1 57089C 23088AT  26257.57340278  .00019268  00000+0  69813-3 0  2570
2 57089  42.9996 109.2958 0001488 257.6820 293.1868 15.27557464    19

Śledź STARLINK-6259 w czasie rzeczywistym z AllMySat

Download on the App Store